Regional Weather Roundup
Issued by NWS Green Bay, WI

Home | Current Version | Previous Version | Graphics & Text | Print | Product List | Glossary Off
Versions: 1 2 3 4 5 6 7 8 9 10 11 12 13 14 15 16 17 18 19 20 21 22 23 24 25 26 27 28 29 30 31 32 33 34 35 36 37 38 39 40 41 42 43 44 45 46 47 48 49 50

000
ASUS43 KGRB 250010
RWRGRB

NORTH-CENTRAL AND NORTHEAST WISCONSIN REGIONAL WEATHER ROUNDUP
NATIONAL WEATHER SERVICE GREEN BAY WI
700 PM CDT THU JUL 24 2014

WIZ005-009-010>012-018-019-250100-
NORTH CENTRAL WISCONSIN

CITY           SKY/WX    TMP DP  RH WIND       PRES   REMARKS
IRONWOOD       NOT AVBL
MANITOWISH WTR MOSUNNY   69  54  57 SW3       30.01S
ARBOR VITAE    PTSUNNY   73  52  47 SW5       30.01S
EAGLE RIVER    MOSUNNY   70  51  51 CALM      30.01F
LAND O LAKES   PTSUNNY   73  49  41 W5        30.02S
RHINELANDER    PTSUNNY   70  54  56 S3        30.02F
PHILLIPS       PTSUNNY   71  55  56 S6        30.00S
ANTIGO         MOSUNNY   68  54  61 SW3       30.03F
TOMAHAWK       PTSUNNY   68  56  65 CALM      30.02S
MERRILL        PTSUNNY   71  54  54 S3        30.01F
$$

WIZ013-073-250100-
NORTHEAST WISCONSIN

CITY           SKY/WX    TMP DP  RH WIND       PRES   REMARKS
IRON MOUNTAIN  SUNNY     75  50  41 SW5       30.00F
MARINETTE      SUNNY     70  48  46 S9        30.01F
OCONTO         MOSUNNY   71  53  52 S10       30.02S
$$

WIZ017-030-035>037-045-250100-
CENTRAL WISCONSIN

CITY           SKY/WX    TMP DP  RH WIND       PRES   REMARKS
MEDFORD        PTSUNNY   71  55  56 S5        30.01F
WAUSAU         PTSUNNY   73  51  46 S6        30.00F
MOSINEE        MOSUNNY   72  55  56 S3        30.03F
MARSHFIELD     PTSUNNY   73  57  57 SW5       30.01F
WISC RAPIDS    PTSUNNY   75  53  46 SW7       30.03F
STEVENS POINT  PTSUNNY   73  51  46 W3        30.02F
WAUPACA        PTSUNNY   77  52  42 S5        30.02F
SHAWANO        PTSUNNY   75  50  41 CALM      30.03S
CLINTONVILLE   MOSUNNY   73  52  46 S6        30.02F
$$

WIZ038-039-048-051-250100-
FOX VALLEY

CITY           SKY/WX    TMP DP  RH WIND       PRES   REMARKS
NWS GREEN BAY  SUNNY     74  52  46 S5        30.03F
APPLETON       PTSUNNY   72  52  49 S8        30.05F
OSHKOSH        PTSUNNY   73  56  54 S7        30.04S
FOND DU LAC    PTSUNNY   73  54  51 S5        30.06S
$$

WIZ022-050-052-250100-
EAST CENTRAL WISCONSIN

CITY           SKY/WX    TMP DP  RH WIND       PRES   REMARKS
STURGEON BAY   SUNNY     66  43  42 S15       30.05F
MANITOWOC      SUNNY     66  46  48 S12       30.07F
SHEBOYGAN      SUNNY     66  44  45 S8        30.08S
$$

LMZ563-521-522-541>543-250100-
LAKESHORE

STATION/POSITION TIME  TEMP    WIND        PRES    VSBY  WAVE
                       AIR SEA DIR/SP/G                  HT/PER
                 (UTC) (F)     (DEG/KT/KT) (MB)    (MI)  (FT/S)
SHEBOYGAN LKSHOR 0000   64     180/ 14/ 15 1018.5F
KEWAUNEE LKSHORE 0000   57     190/  7/  8 1018.4F
NORTHPORT PIER   0000   66     170/  7/ 11 1016.9S
N MID LAKE BUOY  0000   59 55  200/  8/  8 1016.9F         1
CHAMBERS ISLAND  0000   69     150/  7/ 12 1016.6F
MENOMINEE LKSHOR 0000   69     160/ 13/ 16 1017.1F
$$


USA.gov is the U.S. government's official web portal to all federal, state and local government web resources and services.